Terminal Aerodrome Forecast
Issued by NWS

Home | Current Version | Previous Version | Graphics & Text | Print | Product List | Glossary On
Versions: 1 2 3 4 5 6 7 8 9 10 11 12 13 14 15 16 17 18
000
FTUS43 KOAX 271724
TAFCDR
TAF
KCDR 271724Z 2718/2818 20013KT P6SM SCT040
     FM272000 19013KT P6SM VCTS BKN060CB
     FM280100 17015G25KT P6SM SCT070
     FM280800 20007KT P6SM BKN090=

USA.gov is the U.S. government's official web portal to all federal, state and local government web resources and services.